Location: Cudham
(51.3000°N, 0.0667°E)
Time: 17:53:00
(UTC+00:00)

USA 229 DEB - Pass Details

Date: 20 April 2026
Orbit: 844 x 1364 km, 63.4° (Epoch: 10 January)

Event Time Altitude Azimuth Distance (km) Brightness Sun altitude
Rises 22:47:00 0° 311° (NW) 3,863 7.6 -25.0°
Reaches altitude 10° 22:49:36 10° 316° (NW) 2,979 6.9 -25.2°
Maximum altitude 22:56:40 55° 34° (NE) 1,430 4.5 -25.5°
Enters shadow 23:02:00 22° 104° (ESE) 2,500 5.3 -25.7°
